sat.trackr.live / text

‹ back to catalog

STARLINK-30562

NORAD 58033 · 2023-156F

PAYLOAD ACTIVE UNKNOWN

§ Identity

Operator
Country
US
Launch date
2023-10-09
Launch site
AFWTR
Launch vehicle
Mass (kg)
RCS (m²)

Purposes: comms

External: N2YO · Heavens-Above · Gunter

§ Orbital elements

Epoch: 2026-09-20T10:47:44.647584Z

Period
93.85 min
Inclination
53.1613°
Eccentricity
0.0001209
Mean motion
15.34393578 rev/d
Perigee alt
461.9 km
Apogee alt
463.5 km
Semi-major
6,840.9 km
B*
3.2806e-5
RAAN
341.9705°
Arg perigee
75.4886°
Mean anomaly
284.6251°
Rev number
16,487

§ Raw data

STARLINK-305621 58033U 23156F   26263.44982231  .00000732  00000+0  32806-4 0  99922 58033  53.1613 341.9705 0001209  75.4886 284.6251 15.34393578164871

JSON: /api/v1/satellites/58033 · /tle

For live sub-satellite position, see the globe view (requires WebGL).

§ Visibility from observer

Set your observer location to see the next 7 days of passes ≥ 10°. The values pass through the URL so the page stays shareable.

No JS? Fill the form by hand. The geolocation button needs JavaScript.